Theta_e
308 308 308 307 306 306 307 305 306 307 307 307 306 306 307 307 307 307 307 308 308 308 308 308 309 309 310 310 310 312 312 312 317 319 320 318 314 315 315 313 313 312 312 313 315 314 314 315 315 315 317 317 319 319 319 320 320 320 321 316 313 313 313 314 316 316 316 317 316 315 315 314 315 315 315 314 314 315 315 315 314 313 313 313 313 312 312 313
308 307 307 307 306 306 306 305 306 307 307 308 307 307 307 307 307 307 308 307 308 308 308 308 309 309 310 311 312 313 311 313 318 319 318 316 314 315 314 313 313 312 313 315 315 314 315 315 315 315 315 316 318 318 319 319 319 319 318 315 314 316 314 314 316 316 316 317 315 315 315 314 315 315 314 314 315 316 316 316 314 313 313 314 313 313 313 313
307 307 307 307 307 306 306 306 306 306 307 308 308 308 307 308 307 308 309 308 308 308 308 309 309 310 311 312 313 312 313 317 318 317 317 315 315 314 313 313 313 312 313 314 314 314 315 315 315 315 314 315 316 317 318 318 318 318 318 317 316 316 315 314 315 315 315 315 315 315 314 314 315 314 314 314 315 316 316 315 314 314 314 314 313 313 313 313
307 307 307 307 307 306 306 306 306 306 306 307 307 308 309 308 308 308 310 309 309 309 309 310 310 312 312 312 313 313 317 322 318 315 316 315 315 314 313 314 314 313 313 313 314 314 315 315 315 314 315 315 315 316 317 317 318 318 317 317 316 315 315 315 314 315 315 314 315 315 314 314 315 314 314 314 315 316 315 313 313 313 313 313 312 313 313 313
307 307 307 308 307 307 307 306 306 306 305 306 307 307 308 309 308 308 310 310 310 310 310 310 311 312 312 313 314 314 318 320 315 315 315 314 314 313 314 314 314 314 313 313 314 315 315 315 315 315 315 316 315 316 315 315 317 317 316 316 315 315 315 316 315 315 315 314 314 314 315 315 314 314 314 314 315 316 313 311 311 311 312 311 311 312 313 313
307 307 307 307 307 307 307 307 307 306 306 306 307 308 309 310 309 308 310 311 310 311 311 311 313 312 312 313 313 315 318 316 314 315 314 314 314 313 314 314 314 314 313 314 315 315 315 314 315 315 316 315 315 316 315 315 315 317 316 315 315 315 315 316 315 314 314 314 314 314 314 314 314 314 314 313 313 313 311 310 311 310 311 311 311 312 312 312
308 307 306 306 307 306 306 307 307 306 307 307 308 309 310 311 311 310 310 310 311 311 312 313 312 313 313 312 314 318 318 314 314 314 314 314 314 314 314 313 314 314 314 315 315 315 315 314 315 315 316 316 316 315 315 315 315 316 317 316 316 315 315 315 315 314 313 313 314 314 313 313 314 315 313 312 312 310 310 311 311 311 311 311 311 311 311 312
310 309 307 305 306 306 306 306 307 307 307 308 309 309 310 311 311 311 310 311 311 312 313 313 313 313 312 314 318 318 316 316 315 315 315 316 315 314 314 313 314 314 315 316 315 316 314 314 315 315 317 316 315 316 314 314 316 316 316 316 315 314 315 315 314 314 313 313 314 313 312 314 315 314 313 312 311 310 310 311 311 311 311 311 310 310 311 311
311 309 307 306 306 306 306 306 306 307 307 308 309 309 309 310 311 311 312 313 312 313 313 313 314 313 311 315 318 313 315 317 315 316 316 316 316 315 314 315 315 314 316 315 315 315 314 315 315 315 317 316 315 316 314 315 316 315 315 315 314 314 315 315 314 314 314 314 313 313 314 315 313 313 312 310 310 310 310 310 310 310 310 310 309 309 311 311
311 310 309 308 306 306 306 307 307 307 307 307 308 309 308 309 311 312 313 314 313 313 313 314 314 313 314 317 316 312 317 318 316 317 316 316 317 315 314 315 315 315 316 316 315 315 315 315 315 315 316 316 315 314 314 315 315 314 314 314 314 315 315 314 315 315 314 314 313 313 315 315 311 312 313 310 309 310 310 310 310 310 310 309 308 309 310 310
311 311 310 309 309 309 306 306 308 308 308 308 308 308 309 310 312 313 314 314 314 313 314 314 314 314 315 316 313 314 319 320 320 320 318 317 316 315 314 314 314 316 317 316 316 315 315 315 315 315 316 315 315 314 314 313 313 313 313 315 315 315 315 315 315 315 314 314 313 313 315 314 311 312 313 309 309 310 311 311 310 310 310 309 308 308 309 309
311 312 311 310 310 310 308 307 309 310 310 309 309 309 310 312 313 314 315 314 314 315 314 315 314 314 316 315 313 315 317 319 320 319 319 318 316 316 315 315 315 316 316 317 317 315 314 315 315 315 315 315 315 315 314 312 313 313 313 315 317 317 317 316 315 314 314 313 312 312 314 314 313 313 312 308 308 310 311 311 310 310 309 309 308 308 309 309
311 312 312 312 311 311 311 309 310 311 312 311 311 310 311 313 314 315 316 315 315 315 315 316 315 314 316 315 314 313 313 316 318 318 318 317 316 316 315 315 315 314 315 316 316 314 313 314 315 315 315 315 316 314 312 312 313 314 315 315 316 318 317 316 314 313 314 313 311 313 314 315 315 313 312 310 310 311 312 312 311 310 309 308 308 308 308 308
311 311 312 313 312 311 311 310 310 311 313 313 312 311 313 314 314 315 316 316 316 316 316 316 315 315 316 314 313 313 312 314 317 317 316 316 316 315 314 314 314 313 313 314 315 313 312 313 315 314 314 314 314 312 313 314 314 315 316 316 317 317 316 315 314 314 315 312 311 313 314 315 315 313 311 310 310 311 312 312 311 310 309 308 308 308 308 308
311 311 311 313 312 310 310 310 311 312 314 313 313 312 314 315 315 316 316 316 317 317 316 316 316 316 316 315 314 314 313 314 316 317 316 315 316 315 314 314 313 313 313 313 313 312 313 314 315 315 313 313 313 313 315 316 315 316 316 315 318 317 316 317 314 314 316 313 311 313 315 316 315 312 311 310 310 311 312 312 311 309 309 308 308 308 308 307
311 311 311 312 312 310 309 310 310 312 314 313 314 315 315 316 316 317 317 316 316 316 316 318 317 316 316 315 315 315 315 316 318 317 315 315 316 316 314 314 314 314 313 313 312 312 314 314 315 315 314 313 314 316 317 317 317 318 316 315 317 317 317 317 314 313 314 314 313 314 315 317 316 312 311 310 311 312 312 312 310 309 308 308 308 307 307 307
312 311 311 311 311 311 310 310 311 312 313 313 316 317 317 317 317 317 316 315 316 316 317 318 317 316 315 314 314 315 317 318 319 318 314 313 315 315 314 314 314 314 314 313 313 314 314 314 314 315 315 314 316 317 317 317 316 317 318 317 317 317 317 316 315 314 314 315 316 315 316 317 316 313 311 311 311 312 313 312 310 309 308 307 307 307 307 307
312 311 311 311 312 312 312 311 311 313 313 314 316 317 317 317 316 316 316 315 316 315 314 316 316 315 314 314 314 315 317 317 317 317 315 313 314 314 315 315 315 314 314 314 314 314 315 315 314 316 317 316 316 317 317 317 316 316 317 317 317 318 316 316 316 315 314 315 316 317 316 317 317 313 311 311 311 312 312 311 309 308 308 307 307 307 306 306
312 311 311 312 313 313 312 311 311 313 314 315 316 316 316 317 316 317 319 318 316 315 314 316 315 312 313 316 315 315 316 316 316 317 315 313 313 314 315 315 315 315 315 315 315 315 315 316 316 317 318 318 317 317 317 318 318 317 318 317 317 317 317 318 318 314 314 316 316 317 317 318 318 315 312 311 311 312 312 310 309 308 307 307 306 306 306 305
312 312 312 314 314 313 313 312 312 313 314 317 318 317 317 318 318 318 319 318 317 316 316 317 316 313 315 316 315 314 315 315 316 317 315 313 314 314 315 315 315 315 316 317 317 315 315 318 318 318 319 319 319 318 318 318 318 317 318 318 318 317 317 319 318 314 313 316 316 317 318 317 318 317 314 311 310 311 311 310 310 308 308 307 307 306 306 305
312 313 313 314 314 315 315 314 313 314 315 317 319 320 318 317 317 317 318 318 318 317 317 318 317 316 316 316 315 315 315 316 316 317 315 313 315 315 315 315 315 316 316 318 318 315 315 318 319 319 320 319 318 318 318 317 317 317 317 317 318 318 318 319 318 314 313 315 316 318 318 318 318 318 314 311 311 312 311 311 310 308 307 307 306 306 305 305
313 313 313 315 315 315 316 315 314 314 315 317 319 321 320 319 317 315 317 318 319 319 318 318 318 317 316 316 315 315 317 317 316 316 315 313 315 316 315 315 316 318 317 317 317 316 317 318 318 319 318 317 316 316 316 317 317 318 318 318 318 319 319 319 318 315 313 315 317 318 318 318 318 317 314 311 312 311 310 309 309 308 307 306 306 305 305 305
314 313 313 316 316 316 317 315 315 315 316 317 319 320 320 319 316 315 317 318 318 319 319 318 318 316 316 316 314 314 316 317 317 317 315 313 315 316 316 316 316 318 318 317 317 318 319 319 319 318 317 316 316 315 315 316 317 318 318 318 319 320 320 320 318 315 313 315 317 318 317 318 318 316 312 310 310 308 306 306 307 307 306 306 305 305 305 305
315 314 314 316 316 316 317 315 315 316 316 317 319 320 319 317 315 316 319 319 318 320 320 320 319 318 317 317 315 315 316 316 318 317 315 314 315 315 316 316 317 318 318 317 317 318 320 319 318 317 316 316 317 316 316 317 318 319 319 319 319 320 320 320 319 316 315 316 315 316 318 319 319 318 314 309 307 306 305 305 305 305 305 305 304 304 304 304
315 314 315 315 314 316 317 316 316 317 317 318 318 319 318 317 316 315 318 319 319 320 320 319 320 319 318 317 315 315 316 316 318 318 315 315 316 315 315 316 317 318 318 317 317 318 318 317 317 317 316 317 318 318 318 319 319 320 321 320 320 320 320 320 320 319 319 320 317 316 321 320 319 320 317 310 307 307 306 305 305 305 303 303 303 303 303 302
314 314 315 315 314 316 316 316 317 317 317 318 317 317 317 318 317 315 317 318 319 320 318 318 319 319 319 318 315 315 318 317 316 316 315 315 315 315 315 315 315 317 318 317 317 318 318 316 316 318 318 319 319 319 320 320 319 321 321 320 320 320 320 320 321 320 321 322 317 315 321 321 319 319 317 311 309 309 307 306 306 305 303 303 304 303 302 302
314 314 314 315 315 317 317 317 318 317 317 318 318 316 316 318 316 315 316 317 320 321 319 318 317 317 318 318 316 317 319 317 314 314 314 313 314 314 315 316 316 316 316 318 319 319 317 316 317 319 319 320 320 320 321 320 320 323 320 319 319 319 320 321 321 320 321 321 318 315 319 321 320 319 316 312 312 310 308 308 307 305 304 304 304 303 302 302
315 314 314 314 315 317 318 318 318 318 317 318 318 316 317 318 316 316 317 318 321 321 320 317 314 314 316 317 317 317 316 315 316 315 311 311 313 313 315 317 317 316 315 318 320 320 318 318 319 319 319 321 321 320 320 319 321 321 317 317 318 318 320 320 320 320 319 320 321 319 319 321 322 319 315 313 314 313 310 309 307 305 304 304 303 303 302 301
316 315 315 315 315 316 317 318 318 319 318 318 317 316 317 317 316 318 318 318 321 320 318 316 314 314 316 316 316 315 312 313 315 313 309 311 312 313 315 316 317 318 316 316 320 320 317 314 316 318 320 321 319 316 318 319 320 317 315 316 317 317 318 319 319 319 319 320 322 321 320 321 322 319 316 315 315 316 313 310 308 306 305 304 303 302 301 301
317 316 316 315 316 317 317 317 318 319 318 317 318 317 317 317 316 319 321 321 321 320 315 314 315 316 317 317 317 315 313 313 312 311 311 312 312 312 313 314 315 318 317 317 319 318 313 310 312 316 318 317 314 311 312 316 316 315 316 317 317 317 316 317 317 318 320 321 321 321 320 321 322 320 319 318 317 317 314 310 308 306 305 304 303 302 301 300
317 317 317 316 317 317 317 317 317 318 317 317 318 317 317 318 318 322 324 321 318 319 315 314 316 317 317 319 319 316 314 313 312 312 313 312 313 313 314 315 317 318 319 319 319 318 315 313 314 314 313 313 314 312 311 312 313 315 317 318 318 318 317 317 317 317 321 324 319 317 318 321 322 320 318 316 314 315 314 311 308 306 305 305 303 302 301 300
318 318 319 318 317 317 316 317 317 316 316 318 317 316 318 321 323 325 323 316 314 319 319 317 317 318 318 320 321 317 314 314 313 314 315 314 315 315 316 318 319 320 322 322 321 321 319 317 316 314 311 313 316 316 313 312 313 315 317 318 320 322 320 321 321 319 323 322 315 313 316 320 321 319 317 315 313 313 313 311 309 306 306 305 303 302 301 300
319 319 319 319 318 317 317 318 317 316 317 317 316 317 321 324 325 326 321 316 316 320 320 318 317 319 319 321 321 317 315 315 314 314 316 316 318 317 317 318 319 322 324 322 323 323 322 320 317 315 313 312 315 317 316 315 313 315 317 318 322 324 324 325 324 322 323 319 312 312 315 318 319 318 316 313 311 310 310 310 309 307 306 305 303 302 301 300
319 319 319 319 319 318 317 317 316 316 316 315 316 320 323 326 326 324 322 320 318 318 317 317 318 319 320 321 319 316 317 317 314 315 316 317 319 319 319 318 318 321 321 322 323 323 324 324 319 318 316 314 315 318 318 317 315 315 317 318 321 323 324 326 324 324 323 317 312 312 316 319 318 315 311 308 307 307 307 308 308 307 306 305 303 302 301 300
319 319 319 319 319 318 318 317 316 317 315 315 319 322 323 326 326 324 324 321 317 317 316 317 318 320 321 320 317 316 318 318 314 314 316 318 319 320 320 319 318 319 320 322 323 322 325 325 319 315 315 314 316 317 317 318 317 316 316 318 320 320 320 320 319 319 318 317 315 313 315 317 315 311 307 306 306 305 305 306 307 307 306 304 303 302 301 300
319 319 319 318 318 318 318 317 317 317 315 317 322 324 323 324 324 323 323 321 318 317 316 318 319 321 322 321 317 316 317 317 316 316 317 318 319 319 321 320 318 318 320 321 322 322 324 322 316 312 312 312 313 314 315 317 318 317 316 318 317 317 317 318 317 314 314 319 320 316 316 316 314 311 308 306 307 306 305 305 306 306 305 304 303 302 301 300
319 318 318 318 318 318 317 317 317 316 315 318 323 325 323 322 322 322 322 320 318 316 318 321 321 321 323 322 319 317 317 317 317 317 318 318 319 319 319 320 319 318 318 320 321 322 322 321 315 313 315 311 307 310 312 313 315 316 317 317 316 315 316 317 319 319 318 322 322 318 318 318 317 316 310 307 309 308 306 306 305 306 305 304 304 303 302 301
318 318 318 318 317 318 318 317 317 315 315 319 323 324 323 322 322 321 320 318 317 317 319 322 321 321 322 323 321 318 317 318 317 317 319 319 319 319 318 318 318 317 317 318 320 320 320 322 316 312 314 311 307 311 314 312 312 313 315 316 315 318 319 318 320 322 322 324 322 319 318 317 318 318 312 310 311 309 308 306 305 305 305 304 304 303 302 301
317 318 319 318 317 318 318 317 316 315 318 320 321 323 324 323 322 320 318 317 317 318 320 321 321 321 321 322 322 319 318 319 318 317 319 319 319 319 317 318 318 317 316 316 318 318 318 321 319 312 312 312 310 312 316 314 312 311 312 314 314 316 318 318 319 319 321 322 322 320 318 317 318 316 314 314 312 310 309 307 306 305 305 305 304 304 303 302
317 319 320 318 317 317 317 316 316 316 319 320 319 321 323 322 321 319 317 318 320 319 321 322 321 321 321 321 321 320 318 320 319 318 319 319 319 319 317 317 318 318 316 316 317 317 316 318 319 314 310 312 313 314 316 317 315 312 313 315 314 314 314 315 317 317 318 320 321 321 320 319 316 313 314 314 313 312 310 308 307 306 305 305 305 304 303 302
318 321 321 317 317 317 316 316 317 318 320 320 320 320 321 321 320 319 317 318 320 319 319 321 323 322 322 321 321 320 319 319 319 318 319 318 318 319 318 316 318 317 316 316 316 318 317 316 318 316 312 314 316 314 313 314 315 314 314 315 316 315 315 317 319 317 315 317 319 319 320 319 314 310 311 312 311 311 311 309 309 307 306 305 305 304 304 303
319 321 319 317 317 316 316 318 319 319 319 320 320 320 319 318 319 319 317 317 319 318 317 318 321 322 322 321 321 320 319 320 319 319 319 319 318 320 316 313 315 315 314 315 316 317 317 316 317 317 315 315 314 311 308 308 311 313 314 315 316 316 316 318 321 318 315 316 316 316 318 318 312 309 309 308 308 309 309 310 310 308 307 305 305 305 304 303
320 319 315 315 317 316 317 319 319 318 319 319 319 319 318 317 318 318 318 318 319 318 318 318 319 320 321 321 320 320 319 320 320 319 319 320 318 315 310 310 313 314 314 316 316 315 315 316 317 318 316 313 312 310 309 308 309 312 313 314 316 316 317 317 317 316 316 317 316 316 319 318 311 308 308 306 306 306 306 308 309 308 307 306 305 305 304 303
317 315 311 313 315 316 318 320 318 317 318 318 318 318 318 317 317 318 318 318 319 318 319 320 319 318 319 319 318 320 320 320 322 320 319 320 316 309 307 308 310 313 315 316 316 315 315 316 317 319 319 317 315 314 313 311 310 312 313 313 314 317 318 317 314 314 317 318 318 317 319 317 312 309 307 306 306 306 306 306 308 308 307 306 305 304 304 302
313 313 311 310 310 313 318 319 317 316 316 317 318 318 318 316 315 316 317 318 318 318 319 319 318 318 319 318 318 321 321 320 322 320 317 318 315 308 307 308 309 312 314 314 316 316 317 318 318 319 322 322 321 319 318 316 312 312 314 314 314 316 317 316 315 316 318 319 319 318 318 316 312 310 309 308 307 307 305 304 305 306 305 305 304 303 302 301
315 314 312 310 309 311 314 315 317 317 316 316 317 317 317 317 314 313 315 318 317 316 318 317 316 317 318 318 318 319 320 318 318 318 317 317 314 308 306 308 309 311 311 312 315 315 316 318 318 320 321 320 319 317 316 316 314 313 314 314 314 316 316 316 316 317 318 318 318 318 317 316 313 311 310 309 308 308 306 304 304 305 304 304 304 303 302 302
318 316 312 312 312 311 311 312 316 317 316 316 316 316 316 317 315 312 313 315 315 315 315 314 314 317 317 317 318 318 318 317 315 316 318 316 312 308 306 307 309 309 310 313 314 314 315 316 318 320 319 316 315 313 314 315 315 315 315 314 314 315 316 317 317 317 318 317 317 317 317 317 314 312 312 310 308 308 307 304 304 304 305 305 304 303 302 301
315 315 313 313 314 313 311 311 314 316 317 316 316 316 316 316 315 314 312 312 311 313 315 314 313 317 317 317 319 318 317 317 315 316 317 314 312 310 309 309 309 308 310 313 314 315 315 315 318 319 317 314 313 312 313 314 314 314 314 314 314 314 315 316 316 316 317 317 317 316 316 317 315 312 312 310 309 309 308 306 305 305 305 304 303 302 301 301
309 310 309 311 314 315 313 312 313 315 317 317 315 314 315 315 315 314 311 310 311 312 314 315 314 315 316 317 318 318 316 316 316 315 314 313 312 312 312 312 310 308 311 314 315 315 315 315 317 317 317 315 311 310 312 313 313 314 314 314 315 314 314 314 314 315 315 316 316 315 315 315 313 312 312 310 309 308 307 306 306 305 305 304 303 302 302 301
309 310 309 310 311 312 313 313 314 315 315 316 315 313 313 314 314 313 310 310 312 311 312 315 315 313 314 316 317 317 315 316 317 315 312 312 312 311 312 313 311 309 311 313 313 313 314 315 314 314 316 315 309 308 311 312 312 314 314 313 314 314 314 313 313 314 315 315 315 315 314 314 313 312 311 310 309 308 307 307 306 305 305 304 303 303 303 302
303 303 305 310 311 310 311 313 314 315 314 314 314 312 311 312 313 313 311 310 312 312 310 313 314 312 312 313 315 315 313 313 315 313 311 311 313 312 312 312 310 309 310 310 310 312 313 312 312 313 316 315 309 308 311 311 311 313 314 313 313 313 313 313 312 313 314 314 314 315 315 315 313 311 310 310 309 308 307 307 306 306 305 304 304 304 304 303
300 301 304 309 312 309 310 312 313 314 314 313 313 313 312 312 312 313 311 309 310 310 309 311 312 311 310 311 312 312 311 311 312 311 310 311 312 311 311 311 310 309 309 308 309 310 311 311 312 314 316 313 307 307 310 312 312 313 313 313 313 313 312 312 313 313 312 313 315 315 316 315 312 310 309 308 308 308 308 308 307 306 306 304 304 304 304 303
Wind_Speed
5 5 5 4 5 5 5 5 4 3 3 3 3 3 3 3 3 3 3 2 2 1 1 1 2 3 4 5 6 7 10 7 3 3 2 2 3 5 4 4 3 3 4 3 2 4 3 1 2 3 2 0 1 1 1 2 2 3 2 2 1 1 1 2 1 2 2 4 5 3 2 4 2 1 1 2 6 6 6 3 5 7 8 9 8 7 8 9
5 5 5 5 5 5 5 5 4 3 3 3 3 3 3 3 3 3 3 3 2 1 1 1 2 3 4 5 6 8 10 5 1 5 6 4 6 6 5 5 4 4 4 3 3 4 4 2 3 4 2 0 1 1 1 2 3 2 2 2 0 3 3 3 3 4 2 2 2 2 2 3 4 3 3 5 5 4 7 4 8 8 8 8 9 8 8 9
4 4 5 5 5 5 5 6 5 4 4 4 4 4 4 4 3 3 2 3 2 1 1 1 2 4 4 5 6 8 10 5 3 5 5 5 6 5 6 6 5 5 4 3 3 3 4 3 3 4 2 0 2 1 1 2 3 1 2 3 3 4 3 3 2 4 4 3 2 0 2 3 3 3 4 6 9 7 3 2 4 5 5 6 8 8 8 8
5 4 5 5 5 5 5 6 6 5 5 5 4 4 4 4 4 3 2 2 2 1 1 1 2 3 4 5 6 8 8 5 3 4 3 5 6 5 6 6 5 6 5 2 1 1 2 2 2 3 3 0 2 1 0 3 3 1 2 2 5 3 1 4 3 3 3 2 3 2 1 4 1 2 5 6 9 5 3 7 5 3 5 5 6 7 7 8
5 5 5 5 5 5 5 6 6 6 5 5 4 4 3 3 4 3 1 2 1 1 1 1 2 3 3 4 5 7 6 4 4 5 4 5 5 5 5 5 5 6 5 1 1 1 2 1 2 2 3 1 1 1 1 4 3 1 1 4 4 1 1 4 3 3 2 1 2 3 4 2 1 4 5 6 7 1 5 6 5 5 5 5 6 6 6 8
6 5 5 5 5 5 5 5 5 6 5 4 4 3 3 3 3 3 2 2 2 1 2 2 2 2 3 3 4 6 6 1 4 6 5 5 5 4 3 3 4 5 3 1 1 2 2 2 3 2 3 2 2 2 2 3 2 2 2 3 1 1 1 3 3 3 2 3 4 4 2 3 5 6 3 4 3 4 5 5 5 4 4 4 4 5 6 7
7 6 6 6 6 5 5 5 5 4 4 3 3 3 3 2 3 3 2 2 3 2 2 2 2 2 2 3 4 4 5 1 4 7 5 4 4 3 2 2 2 3 1 3 2 3 2 3 3 3 4 3 1 2 3 1 2 4 0 3 1 1 3 1 2 3 3 5 5 3 3 5 8 4 2 2 3 6 5 5 5 4 4 4 5 6 6 7
6 6 6 6 7 6 6 6 5 5 4 4 4 4 4 3 3 3 2 3 3 2 3 2 1 1 1 2 3 4 4 2 5 6 5 4 3 3 3 1 1 2 1 3 3 4 2 4 3 3 4 2 2 2 2 3 4 3 2 3 1 2 4 3 2 4 5 6 5 4 6 8 6 2 2 3 5 5 4 4 3 3 4 4 6 7 6 7
7 6 6 7 7 6 6 6 6 6 5 5 5 5 5 5 4 3 3 3 3 3 2 2 1 1 1 1 3 4 1 4 5 4 4 4 4 4 3 2 1 0 2 2 2 4 2 2 1 2 4 3 2 2 2 4 1 1 3 1 2 4 5 5 6 7 6 5 3 5 9 7 2 2 3 3 4 5 4 3 2 2 4 5 6 6 7 7
8 7 7 7 6 7 7 6 6 6 6 7 6 6 6 5 5 3 3 3 3 3 2 2 2 2 1 2 4 4 2 5 4 3 3 4 4 4 4 3 2 2 3 1 2 3 2 2 3 2 4 1 1 1 1 3 2 2 3 4 7 7 6 6 7 6 5 5 6 7 9 3 5 4 3 5 6 5 4 3 3 2 4 5 5 6 7 8
9 8 8 7 7 7 7 6 6 6 7 6 6 7 6 5 4 3 3 3 3 2 2 1 2 2 1 4 6 3 3 5 4 4 3 4 4 4 5 5 3 3 3 2 2 1 2 1 1 1 1 0 1 1 1 1 2 2 4 7 8 8 8 9 8 5 4 4 5 7 6 4 6 4 2 7 7 5 4 4 3 2 3 4 4 4 5 6
11 10 9 8 7 7 7 7 7 7 7 6 7 7 5 4 4 3 3 3 3 2 2 1 3 3 2 5 5 2 5 5 4 5 4 4 5 5 5 5 4 3 3 3 2 2 1 1 3 3 1 1 2 1 1 1 2 3 4 7 8 9 9 8 5 3 4 2 3 4 5 6 9 5 6 8 6 6 5 4 4 3 3 3 3 3 3 4
12 11 10 9 8 8 7 7 7 7 6 6 7 6 5 4 4 3 3 3 3 2 2 2 3 3 2 4 2 3 5 4 4 4 5 5 4 4 4 4 5 4 3 3 2 4 3 2 3 2 2 3 2 2 1 3 2 4 4 5 7 9 6 5 5 4 4 3 5 4 4 5 9 8 7 6 7 7 6 4 3 2 2 2 2 2 3 4
13 13 11 9 10 10 9 8 7 6 5 6 7 6 5 4 4 4 3 3 3 3 3 3 4 3 3 2 2 3 5 5 4 5 6 5 4 3 3 3 3 4 3 2 5 6 4 3 2 1 2 3 1 3 3 4 4 4 4 4 4 6 2 7 6 5 4 2 6 6 5 2 8 9 6 5 6 7 5 4 3 2 2 2 2 2 3 4
14 13 12 11 13 13 10 9 6 5 5 6 6 5 4 4 4 3 3 3 3 3 3 3 5 3 4 3 2 2 5 6 6 7 7 7 5 3 4 4 4 4 4 5 7 7 4 3 3 2 3 1 2 3 5 4 4 4 4 4 5 3 2 7 6 4 3 2 6 7 5 2 8 8 6 5 6 7 5 4 3 2 2 1 2 2 2 4
14 14 12 13 14 12 10 9 7 6 7 7 4 3 3 3 3 3 3 2 3 4 3 2 5 3 6 2 2 2 4 5 7 9 9 9 5 4 7 7 7 5 5 6 7 6 3 3 1 1 2 2 4 4 4 4 5 5 4 6 4 4 4 3 4 3 2 2 6 8 6 3 6 9 6 5 5 6 5 4 4 3 2 2 1 1 1 2
15 15 13 13 11 8 8 8 8 6 6 6 3 2 3 3 3 3 3 4 4 4 2 0 3 3 4 1 2 3 4 5 8 8 9 10 7 7 9 7 6 7 7 7 5 5 3 3 1 1 3 4 4 4 4 5 5 4 5 5 6 6 6 3 3 5 4 3 5 8 8 8 3 10 8 6 6 6 5 5 5 4 3 2 1 1 1 1
16 15 14 12 10 8 9 8 7 5 5 5 3 3 4 3 4 3 4 5 6 4 0 1 3 4 4 4 3 2 6 6 7 7 8 11 9 8 7 5 6 8 8 5 4 5 3 3 2 4 5 5 5 5 5 6 6 5 4 4 5 6 7 7 3 4 5 4 6 8 9 11 6 9 9 6 6 6 5 5 4 4 4 3 2 2 2 1
15 14 12 10 9 9 9 7 6 5 4 3 5 7 6 3 3 3 4 4 5 3 1 4 7 3 0 6 5 6 7 8 8 7 8 10 9 8 6 5 7 7 5 4 5 6 4 3 3 5 6 7 8 9 9 9 8 8 6 5 7 6 7 10 3 5 3 4 7 10 10 12 11 7 9 7 6 6 5 5 4 4 4 3 3 3 2 2
15 13 11 10 10 8 5 4 7 5 3 2 4 5 3 3 3 3 6 6 9 8 3 3 10 4 2 6 8 9 9 8 5 5 8 10 10 9 7 6 6 5 6 5 5 4 3 5 6 7 9 9 10 12 12 9 6 6 7 7 9 8 9 11 4 5 3 4 7 10 12 12 13 9 8 9 6 6 7 7 6 5 4 4 4 4 3 2
15 14 13 11 11 9 4 2 7 7 5 4 5 4 2 3 4 1 4 8 14 16 11 5 5 4 1 6 9 10 6 3 3 5 10 11 10 9 7 7 6 6 7 6 3 3 2 7 9 11 11 6 5 8 10 8 6 8 8 7 8 8 9 9 3 5 4 2 7 11 13 12 14 11 7 10 8 8 7 7 7 6 5 4 4 4 3 3
17 15 16 13 10 10 5 2 7 7 6 6 7 7 3 3 1 3 1 5 10 16 16 8 4 5 2 5 8 8 4 5 6 7 11 11 10 9 7 9 9 7 7 6 3 3 5 9 12 12 6 1 1 1 5 8 8 8 7 6 8 7 8 9 4 4 3 2 6 8 10 11 13 8 7 8 6 5 4 3 4 5 5 5 4 5 4 4
19 17 17 15 12 11 8 5 7 7 7 8 8 7 3 2 2 4 1 5 5 10 13 11 10 10 8 5 8 9 7 9 8 10 14 13 9 8 7 9 10 8 8 9 8 7 7 7 11 10 4 3 4 3 5 6 7 8 7 6 7 6 5 6 3 3 3 4 6 8 8 11 13 6 7 4 3 4 2 2 2 2 3 4 4 3 4 6
20 18 16 15 13 13 10 7 8 8 9 10 12 10 3 1 3 2 1 5 6 6 8 9 8 11 11 6 10 13 10 9 8 10 17 14 9 6 8 10 11 10 8 12 13 12 10 2 2 7 6 6 8 6 7 7 6 8 9 9 9 8 7 7 4 1 5 7 5 7 8 9 11 9 6 3 3 4 4 5 4 3 2 2 3 3 3 5
21 20 16 15 14 14 12 9 9 10 10 10 14 15 8 2 3 2 2 4 7 4 2 5 4 8 9 8 12 12 7 10 8 9 19 16 10 7 6 7 8 10 11 14 13 13 12 2 5 6 6 7 9 8 9 7 7 8 9 12 12 12 10 10 8 4 6 6 5 5 7 4 4 9 8 6 5 6 6 6 6 5 4 4 5 5 4 4
21 20 18 18 15 15 13 7 10 10 9 11 13 12 11 6 1 1 1 3 7 3 4 5 6 8 10 10 12 7 3 8 2 8 17 11 6 4 4 5 4 7 9 10 8 7 4 5 4 6 6 7 8 9 10 8 8 7 3 4 8 10 9 9 7 3 4 4 3 4 6 3 2 6 8 7 7 7 7 7 7 6 6 6 5 5 6 5
22 20 20 20 18 19 14 5 10 12 7 8 10 11 12 10 6 2 1 4 6 4 6 3 3 6 8 9 13 9 1 3 6 6 9 5 4 3 4 7 5 4 3 2 4 3 4 7 6 7 7 8 8 9 9 8 8 5 2 2 3 6 8 8 7 6 5 4 2 6 6 5 6 3 7 9 8 8 8 8 8 7 7 7 6 6 7 6
26 23 22 22 21 22 15 6 11 14 8 3 4 11 13 10 9 3 2 5 3 4 5 1 2 3 5 6 11 8 1 4 6 3 3 1 3 3 7 12 8 8 8 6 6 2 4 8 9 10 9 8 7 5 5 10 8 2 4 2 1 2 5 6 6 6 5 4 4 7 6 5 7 3 6 7 7 8 10 11 11 10 9 9 8 8 7 7
29 27 25 24 21 22 17 9 10 12 14 9 3 9 13 9 7 2 2 4 2 3 3 3 4 4 7 8 8 5 3 2 1 1 4 2 2 0 5 9 8 9 10 11 10 1 3 2 4 8 9 7 3 4 2 6 5 2 5 4 3 1 1 3 5 5 4 5 8 8 9 5 6 4 6 5 5 8 9 10 10 11 10 10 10 9 8 7
31 30 30 26 22 24 22 14 13 13 14 14 8 7 13 7 4 4 5 5 3 2 3 3 5 7 12 12 7 7 5 2 3 5 5 4 3 1 2 2 4 5 6 8 9 2 4 2 1 3 3 1 5 7 5 2 3 6 6 4 3 3 2 2 4 3 5 7 8 9 12 8 5 4 5 3 1 4 8 9 10 11 12 11 10 10 9 8
31 31 32 31 27 27 22 14 19 21 15 13 10 10 11 4 2 7 7 1 2 3 5 5 6 10 15 14 9 9 8 3 6 9 6 4 5 5 3 3 3 4 5 7 8 5 5 4 2 2 2 3 6 5 3 3 3 4 4 4 3 3 3 3 4 4 6 6 2 2 6 9 7 4 2 3 3 4 8 10 13 14 14 13 11 10 10 8
34 32 32 33 31 29 23 15 19 24 18 12 11 9 7 4 3 8 6 4 0 6 9 8 9 11 16 14 8 9 9 5 8 9 7 7 7 8 9 8 6 6 6 7 7 5 6 7 6 4 2 5 6 4 3 2 3 5 5 6 5 3 4 5 5 5 6 4 2 3 3 5 7 7 3 4 5 4 5 8 13 16 15 13 12 11 10 8
36 35 34 34 34 32 26 18 18 21 19 14 11 4 3 6 8 11 11 6 2 3 6 9 11 12 15 11 6 9 7 5 9 9 7 9 8 9 11 11 11 8 4 5 7 4 3 5 8 7 3 7 11 7 5 5 6 8 8 7 7 5 5 6 6 5 5 2 2 2 3 3 5 6 3 4 6 4 4 4 10 15 15 14 13 12 10 9
37 37 37 36 36 34 29 24 20 20 21 17 9 3 4 9 11 13 15 10 3 4 5 8 11 12 13 9 6 10 6 4 10 8 6 9 7 8 11 12 15 10 2 3 6 6 6 3 7 10 5 9 14 8 4 6 8 9 8 6 7 5 4 5 5 4 3 2 2 2 3 4 4 2 2 4 5 4 4 3 8 12 13 12 12 11 10 10
38 39 39 36 36 35 33 30 25 23 23 14 6 7 9 10 9 10 12 8 5 5 6 9 11 10 10 6 5 10 5 2 10 9 6 9 8 8 10 11 14 12 6 6 4 5 9 5 4 4 1 9 13 5 2 5 7 7 5 5 6 4 3 2 1 1 2 1 2 5 3 3 2 3 3 4 3 5 5 4 8 12 13 12 11 11 10 9
41 40 37 35 37 37 36 32 28 28 22 9 6 10 11 9 6 6 8 8 8 9 10 9 8 7 9 6 6 10 4 2 10 9 6 9 9 9 10 9 13 15 11 8 3 4 7 2 4 3 1 5 5 1 2 2 3 5 5 6 2 2 3 2 1 2 1 5 4 5 4 3 2 3 4 6 5 6 6 7 9 11 13 13 11 10 10 10
39 35 29 31 36 38 38 34 30 28 17 6 8 11 8 7 5 4 6 8 10 13 11 7 7 8 9 7 7 11 7 5 10 8 6 8 7 10 12 8 12 18 16 10 5 4 5 2 3 4 3 2 2 2 1 2 1 3 5 5 3 2 2 2 4 1 3 8 4 5 8 5 4 3 4 7 7 8 8 9 10 11 12 12 11 11 11 10
35 27 20 27 37 38 38 36 31 23 9 4 12 13 6 4 3 2 3 5 11 14 10 9 9 9 10 8 8 13 12 7 10 9 6 7 5 10 15 9 10 17 18 11 4 2 4 4 2 3 2 4 2 2 3 1 1 1 2 2 2 2 4 4 5 4 5 7 5 5 8 7 6 4 5 9 11 11 11 10 11 13 13 12 12 13 13 11
26 14 9 24 38 37 39 39 28 13 4 6 13 12 7 4 1 2 2 0 6 12 12 12 9 8 10 10 8 13 13 9 11 9 7 7 5 9 15 10 9 15 17 12 5 2 3 4 3 1 1 4 5 5 7 7 4 1 2 2 1 2 3 4 4 3 4 6 6 4 5 5 6 5 8 12 12 13 13 11 12 14 14 13 12 13 13 12
15 5 2 22 38 39 42 35 17 7 5 9 11 7 5 5 2 2 2 2 2 5 8 11 12 11 10 11 9 10 11 10 10 8 7 8 6 7 13 11 8 10 13 13 8 4 3 3 3 1 1 4 5 7 9 9 8 7 6 7 5 2 0 2 3 3 3 5 6 6 5 3 1 1 2 6 9 13 14 12 11 12 13 13 13 13 13 12
8 4 4 25 42 42 37 21 7 6 7 9 12 7 5 5 4 4 1 2 2 1 1 4 8 9 8 10 10 8 8 8 10 8 6 8 8 6 6 6 8 9 8 9 9 6 4 4 4 3 4 6 4 2 1 2 4 7 8 9 9 7 4 3 5 3 1 4 4 5 7 2 3 3 4 5 4 6 10 11 9 10 12 13 12 13 13 12
6 5 7 29 47 43 25 9 6 8 8 9 9 5 3 3 3 5 4 1 2 1 1 3 3 4 5 7 6 6 7 6 9 9 7 8 10 6 1 2 5 12 9 6 7 4 2 2 5 4 3 4 1 3 2 2 2 4 6 7 7 7 7 7 7 3 3 3 1 2 6 2 2 2 3 4 4 4 4 6 7 8 10 12 11 13 13 11
5 4 8 29 49 41 16 6 9 8 8 8 4 3 4 3 5 7 5 5 3 1 2 2 2 3 3 3 3 6 8 7 9 10 8 7 5 1 1 2 3 11 9 4 3 3 3 1 5 4 1 2 3 2 2 1 1 4 6 5 6 8 8 6 3 1 3 5 3 3 7 3 2 2 3 3 3 3 2 3 6 7 8 10 12 12 12 10
3 2 3 17 36 33 15 8 10 10 10 7 5 6 4 2 7 9 8 10 6 3 5 4 3 3 1 1 2 5 7 7 9 8 5 5 3 3 2 0 4 9 7 1 3 6 5 4 6 5 3 4 4 3 4 3 4 6 7 6 7 7 5 2 1 1 4 7 7 7 8 2 3 1 2 3 3 3 3 3 4 6 7 8 9 9 9 9
3 1 1 5 13 15 10 7 10 12 12 11 9 9 5 2 4 4 7 10 5 3 5 3 2 3 2 2 1 1 3 4 4 2 0 2 1 3 3 2 2 4 2 3 2 3 5 4 6 8 8 9 8 6 6 6 6 5 6 8 10 10 7 4 2 5 7 6 8 9 7 3 5 2 1 2 2 3 4 3 3 4 6 7 7 7 8 8
4 1 1 1 1 3 2 2 7 10 12 13 10 9 10 8 2 2 3 7 3 3 2 0 2 3 2 4 3 3 3 1 0 1 2 3 2 2 2 2 2 1 2 4 3 1 1 2 7 10 7 4 3 2 1 5 9 9 9 11 11 11 10 7 6 8 6 4 7 9 6 4 6 7 5 4 4 3 3 4 4 5 6 7 7 8 8 8
4 3 5 3 1 3 1 1 8 10 13 14 8 7 14 13 4 2 2 4 4 5 2 2 3 5 6 8 7 5 3 2 1 2 2 2 2 2 2 1 2 2 3 2 1 2 2 4 9 9 3 2 2 3 4 2 8 11 11 12 11 10 10 11 11 7 4 4 7 6 8 7 8 10 8 6 5 4 4 6 6 7 7 7 7 7 8 9
3 3 4 4 2 6 6 7 12 12 14 15 7 5 13 14 9 7 3 2 4 7 4 2 6 11 12 11 9 6 4 2 3 3 3 2 3 2 1 2 1 2 2 0 1 2 3 4 4 4 2 2 3 4 4 2 1 3 6 10 11 11 12 14 15 9 5 7 7 3 9 11 9 9 10 9 8 7 7 7 7 7 7 7 7 8 9 9
2 1 1 1 2 5 8 8 9 10 13 14 7 5 11 15 15 10 4 5 4 6 7 8 11 13 12 12 10 8 8 8 6 5 5 4 4 4 3 2 1 2 1 1 1 0 3 2 1 1 2 2 4 3 3 3 2 2 3 7 8 10 12 13 15 12 7 11 9 3 6 9 7 7 8 7 7 7 7 6 6 7 7 8 8 8 9 9
2 1 2 1 1 2 5 6 8 8 9 9 8 7 9 14 16 10 5 7 8 7 10 13 14 12 10 11 12 12 12 10 8 8 10 8 6 5 4 3 3 2 1 1 1 1 1 2 2 1 1 0 2 2 3 3 1 3 6 9 9 9 11 11 11 9 8 11 10 4 5 7 4 5 5 5 5 5 6 7 7 7 7 8 8 8 8 9
1 2 1 3 4 4 4 6 8 8 7 7 9 9 10 16 18 12 6 7 8 9 12 15 13 9 6 9 12 11 7 4 3 6 10 9 6 4 2 2 4 5 3 2 1 1 0 2 2 1 3 2 2 2 3 4 3 5 12 14 10 7 8 9 9 7 7 9 7 5 8 7 3 4 5 5 6 6 7 8 6 6 6 7 7 7 7 7
2 2 2 1 4 5 6 6 8 8 7 9 10 10 11 13 14 12 7 5 6 7 8 11 11 8 5 11 13 9 6 6 4 4 5 4 3 4 3 3 4 5 4 3 2 1 2 3 2 2 4 1 3 2 2 3 2 5 9 10 11 10 9 8 7 7 8 7 5 7 9 6 3 5 6 7 8 8 9 7 6 6 6 6 6 5 5 5
Wind_Direction
171 167 167 171 177 178 163 163 173 170 177 181 184 186 187 189 184 183 176 182 191 195 226 342 338 352 356 350 357 346 347 351 351 27 43 69 111 127 113 101 82 64 62 40 302 281 270 268 360 305 261 190 335 15 352 348 333 277 261 259 246 129 105 78 105 94 99 123 119 107 39 321 299 11 53 280 233 224 265 247 106 86 80 72 63 36 21 17
182 179 172 175 181 175 165 172 179 178 179 173 182 188 189 192 188 196 192 198 199 207 249 332 330 349 349 346 353 339 345 335 225 57 57 98 121 115 98 97 82 69 57 7 316 310 311 347 353 304 281 153 6 351 271 345 328 306 315 270 50 58 71 57 53 72 65 84 84 94 59 330 314 350 5 309 269 236 263 202 136 119 105 80 56 38 29 26
192 186 178 179 179 176 177 184 189 186 184 184 189 190 195 196 192 197 205 212 204 218 274 331 329 345 340 344 343 333 341 295 217 64 71 112 111 104 98 94 71 65 54 360 334 333 338 4 332 306 293 181 53 347 276 6 328 352 314 276 84 69 83 90 73 68 48 42 332 30 71 297 293 327 316 313 300 275 269 81 133 135 92 60 48 34 25 27
191 192 188 187 181 181 185 189 193 192 196 200 199 204 207 203 203 199 204 224 216 247 294 323 324 340 335 343 331 331 333 272 183 97 124 122 111 111 102 89 67 56 45 5 25 25 338 342 327 317 292 241 88 258 349 37 341 357 313 340 80 76 108 116 111 80 53 16 315 328 307 275 262 303 295 300 294 267 88 40 8 16 36 36 41 32 25 28
195 200 198 196 191 189 190 189 192 194 199 204 209 217 220 219 222 211 213 243 241 264 290 305 314 330 333 341 330 332 319 265 137 135 163 144 137 129 116 96 71 59 54 23 46 3 283 306 307 301 287 305 84 243 81 55 338 281 30 35 72 17 22 105 104 90 77 327 283 276 276 313 336 277 274 272 284 351 61 27 15 15 31 38 31 26 29 32
202 205 209 208 202 204 202 197 196 198 198 204 217 227 235 239 242 234 228 245 255 268 275 291 315 326 336 345 332 321 301 284 138 177 175 165 168 148 143 109 73 66 62 323 342 289 280 300 278 292 309 313 330 338 62 70 324 287 112 88 71 348 342 87 102 127 154 248 253 269 310 343 284 267 256 263 299 59 55 40 52 44 49 48 37 36 36 37
209 206 213 213 208 210 215 213 207 205 202 210 227 235 244 245 247 246 236 246 251 258 276 291 314 320 341 337 319 286 273 31 143 188 178 183 192 181 192 132 87 69 36 296 311 289 292 285 291 337 304 292 331 13 51 57 255 282 13 120 92 331 287 313 113 167 208 250 261 293 319 278 263 264 216 209 75 78 75 66 64 62 68 61 54 49 42 43
224 218 216 217 217 215 217 219 216 213 210 219 233 235 239 241 247 247 233 250 253 250 269 281 305 319 24 325 300 264 253 102 132 183 193 206 212 214 219 174 125 60 331 296 320 310 296 278 308 334 294 344 351 348 39 287 227 258 342 102 115 264 259 267 244 233 232 248 255 255 263 259 257 255 199 163 94 91 94 83 79 80 73 62 53 45 44 46
232 235 229 226 227 225 222 222 225 222 219 223 230 238 241 240 246 240 225 244 247 248 258 264 275 236 185 291 286 273 247 112 133 188 205 212 223 222 206 199 240 250 268 297 306 285 277 287 3 344 320 14 323 329 31 287 238 46 1 47 253 252 251 255 254 252 241 243 222 236 258 249 205 191 183 130 106 113 112 102 91 83 63 52 46 36 33 35
231 238 239 237 236 237 234 230 235 237 236 234 234 242 243 241 246 238 227 237 238 246 248 255 246 191 227 250 248 262 111 116 146 184 194 204 210 203 198 205 219 248 263 278 263 264 287 334 45 9 315 324 271 4 355 294 356 11 329 294 271 262 259 246 248 255 246 247 223 239 265 203 136 208 201 121 130 140 134 125 95 77 64 52 44 38 28 27
230 235 243 244 242 244 238 234 242 245 244 244 245 248 246 241 242 236 235 239 234 244 242 233 209 197 243 247 250 261 132 134 156 165 178 192 183 180 203 213 214 252 265 249 231 278 328 360 75 266 300 228 186 165 216 348 358 323 313 293 268 253 250 236 239 247 236 244 217 231 259 169 152 218 175 122 143 159 153 135 116 99 80 66 52 49 36 30
228 231 239 243 246 251 244 239 245 249 248 250 251 254 251 240 238 236 232 230 226 235 230 195 197 191 234 254 255 220 150 153 168 178 188 186 184 189 205 214 208 220 260 265 199 159 302 148 207 253 11 323 251 172 135 112 297 296 289 290 285 265 250 227 212 208 220 203 154 208 246 207 195 184 123 127 151 165 169 155 138 121 99 90 68 64 56 41
229 229 234 239 247 251 248 246 248 252 250 250 256 255 247 242 237 229 216 220 221 216 204 194 186 167 248 260 204 152 173 183 184 180 181 171 171 188 199 208 200 197 239 280 151 155 180 158 248 273 34 297 284 78 133 173 252 280 257 274 297 281 243 168 149 172 209 155 147 207 268 213 181 147 116 133 159 171 179 165 152 133 114 111 85 84 71 54
231 229 227 231 243 244 246 249 246 252 259 260 260 247 241 244 230 215 212 217 212 202 191 188 178 166 244 253 117 176 204 198 185 169 171 156 137 145 159 172 182 190 192 167 149 155 161 150 235 173 83 318 44 117 215 208 224 262 268 248 262 281 184 136 144 176 200 147 164 215 281 226 152 136 121 138 168 184 194 167 157 147 119 113 103 107 88 72
237 234 220 222 241 244 244 246 230 222 254 268 261 242 235 232 219 210 211 213 204 193 172 172 178 182 258 237 131 204 202 192 185 183 182 160 154 156 138 134 123 136 145 141 146 138 140 167 210 190 107 65 156 194 248 237 223 231 267 255 226 253 177 148 149 192 220 151 171 210 269 215 149 148 129 133 178 193 204 175 153 154 128 122 116 101 95 95
239 240 225 221 238 246 247 242 212 203 239 253 247 226 211 204 201 203 195 180 173 165 142 164 186 229 281 237 134 190 196 195 193 200 200 177 181 167 134 128 115 114 115 119 133 129 139 181 234 301 136 178 209 227 258 254 240 212 230 269 257 254 251 170 144 177 211 155 182 209 262 293 141 150 146 148 182 193 200 180 156 157 141 130 122 97 98 103
232 237 232 224 234 252 264 247 209 204 241 233 209 173 172 169 171 184 167 150 143 134 120 88 169 221 267 165 176 213 172 176 184 192 199 183 176 156 142 138 128 123 115 118 141 152 169 185 177 254 212 223 226 221 245 251 253 213 204 255 268 259 265 261 165 153 174 202 219 219 247 277 190 149 162 167 178 200 200 179 162 158 152 145 129 119 113 90
228 231 226 218 225 247 271 257 207 207 241 218 181 150 145 150 148 136 134 142 122 103 68 230 173 231 236 182 182 140 120 144 162 164 177 172 162 159 156 151 146 144 141 144 176 185 198 194 199 244 226 216 212 208 224 243 273 278 249 264 273 257 247 261 256 154 181 212 245 245 245 265 243 159 161 168 179 205 192 166 163 160 156 156 155 147 120 92
225 222 209 203 216 234 263 252 196 197 228 187 141 125 109 113 141 157 170 164 160 174 228 181 188 229 239 160 133 88 107 132 143 152 162 158 153 161 162 155 162 172 179 179 185 188 199 192 200 242 230 214 210 211 230 253 285 297 291 291 287 277 260 268 278 130 183 242 248 257 258 265 261 197 164 164 183 195 179 164 167 168 165 164 161 149 130 108
216 207 199 205 213 219 269 251 184 180 205 167 142 133 127 176 190 195 190 204 220 229 296 188 199 228 81 131 124 110 117 128 139 153 157 157 157 161 163 162 170 200 220 208 183 165 196 219 216 229 234 234 223 219 238 262 292 296 284 280 272 270 270 273 270 122 129 271 256 263 267 266 271 251 173 158 178 188 187 184 180 177 172 171 162 148 139 115
205 202 198 199 202 206 256 259 177 179 193 180 190 204 220 215 221 229 180 212 225 233 259 246 221 267 120 120 143 145 133 147 173 158 159 164 166 171 172 175 186 207 214 203 155 119 193 227 228 235 244 258 245 229 246 262 270 270 268 271 266 261 267 272 256 129 125 260 267 273 272 263 268 261 175 161 187 191 192 192 186 181 169 168 165 156 145 120
205 205 194 190 196 205 229 229 179 188 195 188 213 234 310 342 335 23 13 249 228 223 240 242 244 259 180 129 163 175 200 193 169 165 169 170 181 194 179 179 208 209 178 168 155 181 216 231 235 240 242 151 73 248 253 259 259 261 256 259 264 261 271 268 231 147 145 242 279 281 276 269 270 253 160 171 196 171 176 193 181 178 175 178 170 161 154 139
209 203 197 202 206 206 212 195 180 191 202 203 217 230 296 342 70 48 336 282 259 211 219 221 223 227 202 176 180 185 211 206 194 180 172 175 190 205 192 187 217 214 174 186 207 222 226 237 236 227 185 178 219 220 227 250 251 245 243 249 258 255 262 264 221 136 182 238 284 294 284 273 266 226 142 154 165 131 147 190 176 185 185 174 157 156 157 148
209 201 203 206 200 206 206 181 183 205 214 221 232 232 247 99 115 38 290 272 266 207 200 209 218 224 207 172 172 188 213 224 222 179 169 181 180 185 209 204 219 222 201 208 216 232 241 255 211 198 181 216 234 223 216 238 248 235 231 237 255 261 252 258 262 231 242 238 246 271 278 271 250 214 171 139 149 165 176 180 184 185 179 152 143 153 149 138
205 201 204 197 194 203 195 180 198 213 213 227 243 233 218 159 91 13 305 268 251 209 167 196 201 216 196 147 161 183 218 229 228 167 168 186 179 164 205 210 223 228 218 218 222 242 245 164 119 175 177 211 230 237 223 226 254 250 233 230 247 266 266 266 275 288 280 258 196 222 268 278 211 198 182 151 167 184 177 185 190 173 169 176 172 166 151 133
203 203 201 195 195 193 184 196 209 202 210 231 246 228 207 203 125 35 274 275 259 204 136 181 181 180 171 154 160 154 233 227 199 136 165 187 192 167 204 188 211 243 227 221 231 253 233 133 148 191 197 214 224 245 234 219 250 263 256 225 237 260 264 262 264 244 270 284 146 195 261 280 219 193 164 154 178 178 174 191 187 172 175 181 177 163 156 148
203 201 199 196 198 192 183 195 189 179 201 233 239 226 208 205 207 230 230 272 266 171 135 181 192 170 161 159 163 152 213 176 101 124 166 179 186 174 230 194 175 236 215 189 233 230 161 163 189 206 217 227 225 244 231 209 239 260 36 49 217 247 254 246 241 228 257 298 184 203 239 273 276 231 150 159 179 175 183 194 184 180 181 175 171 158 154 148
206 202 200 198 204 203 190 167 175 183 209 217 202 210 202 197 207 220 219 248 261 128 131 158 103 112 124 152 174 168 114 124 135 156 107 107 191 174 223 214 206 211 182 183 224 211 148 183 195 199 213 228 226 246 199 193 228 256 71 54 185 259 263 242 235 237 253 280 250 212 199 245 264 214 142 163 191 198 195 190 184 181 175 171 167 157 153 146
212 207 203 201 210 214 204 189 186 200 216 216 221 201 186 182 201 218 243 229 195 111 123 137 127 117 129 154 185 168 108 108 188 118 103 136 238 121 228 230 239 220 189 207 233 295 84 188 212 205 215 224 191 53 72 199 219 134 112 93 88 104 245 224 234 244 240 247 254 222 187 222 271 216 165 176 220 219 194 181 181 175 170 170 165 158 157 149
217 213 208 205 210 209 204 207 214 215 213 220 239 188 166 170 192 196 213 221 208 142 110 135 158 153 151 159 181 187 174 119 90 128 142 153 180 219 290 270 259 227 194 224 247 245 106 94 319 225 219 183 102 69 31 12 120 137 145 126 124 163 173 213 231 243 252 244 246 227 200 210 271 244 188 177 223 190 166 168 172 168 169 169 164 160 158 154
217 217 212 209 209 201 198 210 220 221 222 223 215 165 159 179 213 205 205 225 293 171 134 153 154 150 165 169 175 189 188 143 132 154 152 137 169 190 188 176 201 214 215 233 240 219 173 166 180 156 121 111 109 97 58 50 112 163 171 165 175 183 178 216 213 207 247 244 230 230 201 208 238 248 166 105 79 133 157 170 171 169 171 167 162 161 158 158
216 220 216 212 209 201 202 212 214 216 218 205 181 164 173 182 209 229 204 100 208 184 152 160 162 164 179 181 176 174 172 159 163 174 172 166 180 190 195 192 171 185 228 225 211 210 210 203 176 127 137 176 161 138 111 104 183 195 186 183 196 199 190 214 203 201 236 233 102 93 153 214 239 245 230 127 124 142 155 172 171 167 167 163 160 159 158 159
216 219 217 213 208 203 204 209 209 209 200 175 165 177 211 189 203 220 201 168 174 155 129 149 166 173 179 182 179 161 161 171 172 180 185 180 192 202 206 210 195 203 244 203 189 191 207 206 179 165 175 193 190 186 173 173 185 193 190 186 198 205 212 220 208 215 233 209 83 127 156 224 244 246 250 117 116 106 89 148 169 165 163 161 158 157 157 160
217 217 214 211 209 205 202 204 209 202 182 165 162 178 208 215 214 209 206 203 163 96 102 139 155 167 178 184 167 156 165 180 169 173 181 182 201 209 205 213 211 216 252 195 199 203 219 239 180 176 169 176 191 210 211 174 177 196 199 201 217 228 244 238 219 235 235 125 123 159 176 217 206 173 74 86 94 92 81 111 154 158 157 154 154 156 159 163
216 215 213 209 207 206 199 200 207 194 176 168 171 177 196 221 221 210 208 193 147 116 113 136 145 161 184 190 162 168 183 186 171 176 190 192 208 209 201 207 206 205 206 211 213 200 226 257 148 145 104 173 184 203 208 171 175 189 199 219 235 259 282 272 254 349 38 26 202 185 226 252 164 116 118 123 120 125 122 127 148 157 155 152 157 161 164 169
210 209 211 205 204 204 194 192 197 188 176 170 180 190 205 218 210 201 196 180 163 138 128 144 159 174 191 186 174 184 194 159 172 179 203 208 220 222 213 205 196 197 198 199 193 188 222 252 116 115 47 172 181 170 175 211 179 166 187 209 212 355 325 270 200 94 96 275 244 172 220 256 154 164 153 149 153 145 145 156 160 161 158 159 165 167 171 173
200 199 204 202 202 200 192 189 189 183 177 179 199 205 212 215 203 180 178 175 157 139 141 179 188 185 193 191 186 185 178 161 173 183 192 194 218 221 213 209 195 198 204 208 222 218 223 244 147 172 176 124 13 4 135 342 4 157 189 189 121 35 328 270 254 234 221 257 254 179 210 213 189 207 154 156 176 170 166 166 166 168 166 170 175 172 173 172
194 193 200 202 199 194 191 191 184 177 176 198 215 223 221 210 209 154 138 156 152 155 182 213 195 187 196 198 185 176 175 172 174 188 190 182 209 198 190 201 201 200 206 211 238 236 216 237 195 174 163 124 112 199 179 186 247 263 253 186 139 216 216 199 227 252 241 248 259 214 211 212 213 200 157 178 188 179 175 169 172 180 179 180 180 174 173 171
190 191 213 202 195 189 188 188 179 174 192 198 213 228 221 211 216 73 40 208 170 179 202 214 204 201 205 208 188 167 176 183 167 178 199 189 199 182 177 189 200 200 201 197 210 211 196 233 225 155 99 129 144 197 198 189 186 259 285 221 198 259 233 198 207 239 245 247 259 237 207 214 223 198 175 187 185 175 173 171 182 189 186 185 181 176 177 176
180 191 225 186 186 186 183 180 173 181 207 203 213 221 200 204 191 84 7 326 205 198 213 219 215 213 211 211 201 167 178 195 175 182 207 186 179 182 182 189 185 188 196 195 204 208 172 223 227 120 111 164 174 201 205 196 185 186 201 199 187 175 209 273 238 229 243 249 252 254 251 225 170 63 162 173 169 173 174 175 186 191 188 187 183 179 180 178
172 215 181 170 176 176 172 170 176 197 203 215 225 226 206 204 178 152 106 358 340 26 327 255 232 226 214 205 202 169 168 200 192 193 209 193 199 202 185 193 173 153 166 191 203 203 178 201 206 165 184 205 200 184 222 244 202 195 200 199 193 179 160 209 225 198 206 251 248 263 273 258 101 41 30 62 93 152 167 173 181 185 187 187 185 185 183 180
178 217 160 163 170 167 163 177 192 190 210 214 217 219 180 166 170 172 158 139 296 34 36 320 278 240 216 199 201 164 157 195 201 200 212 206 211 209 128 356 163 151 151 177 194 188 132 180 201 186 190 202 153 69 60 358 314 266 241 215 200 191 185 205 219 183 173 224 264 290 277 286 83 57 55 61 51 69 127 160 167 175 184 185 185 186 186 183
188 191 142 162 169 165 162 205 186 193 224 205 187 182 154 152 186 181 166 182 199 147 191 233 232 240 232 190 190 180 177 198 201 202 217 212 206 175 85 4 159 165 172 181 171 136 69 149 204 201 169 138 117 105 115 66 337 260 249 227 213 210 202 214 236 137 185 206 168 218 248 236 110 71 66 79 78 78 100 160 162 165 175 184 186 184 184 177
171 158 121 168 174 170 172 196 185 201 217 196 189 193 164 176 197 188 190 193 182 161 190 199 187 213 224 131 171 191 193 210 209 206 220 207 181 54 62 238 194 185 185 175 168 166 163 189 198 200 210 197 187 197 204 191 196 225 227 211 220 218 180 133 74 135 233 217 183 213 243 193 127 116 66 78 92 112 125 150 163 157 158 174 176 172 169 158
136 98 355 180 181 180 188 194 184 196 205 202 208 200 177 191 208 204 206 199 181 157 187 200 155 141 113 116 118 198 209 232 228 210 133 182 167 43 33 352 254 207 180 16 352 192 185 189 186 194 212 216 213 222 218 187 174 219 220 193 206 211 181 157 193 215 231 207 180 215 238 143 130 162 131 119 137 129 125 134 158 157 156 166 167 165 165 158
160 126 197 167 331 210 215 195 182 190 198 201 208 204 196 198 189 21 214 204 188 140 160 54 108 114 121 159 163 198 208 226 360 187 184 180 150 43 11 7 22 36 20 5 357 26 168 221 214 217 226 215 211 273 7 140 159 190 196 182 194 206 195 191 218 225 223 201 203 218 212 160 160 179 176 165 168 159 144 153 172 178 175 176 177 178 178 178
183 168 172 168 192 203 246 240 195 195 195 192 193 196 199 199 176 110 223 220 180 155 135 26 147 176 186 178 183 202 183 125 138 182 174 152 110 39 353 12 55 29 4 338 12 106 155 226 229 231 241 69 58 3 11 133 178 188 184 182 190 195 193 200 217 219 166 194 233 206 181 201 197 181 182 173 163 167 173 176 181 184 182 177 175 175 181 188
203 173 177 190 204 193 204 208 197 196 191 186 184 183 191 195 187 178 186 172 164 171 176 218 212 209 203 189 190 193 161 157 215 194 166 142 141 146 98 61 338 333 354 317 67 109 184 215 227 220 189 84 51 5 355 6 236 183 175 187 190 187 191 203 219 222 182 217 250 142 170 213 210 182 184 178 176 184 181 180 179 175 171 166 167 175 186 193
160 75 163 276 299 199 200 188 175 189 190 182 181 181 184 194 198 193 151 125 171 199 198 214 218 210 205 197 193 192 182 191 216 208 182 162 156 165 150 133 247 299 52 113 63 79 196 187 103 146 175 88 53 17 10 42 16 314 235 215 203 194 195 205 221 227 226 243 252 157 184 229 224 194 186 169 172 176 167 173 172 165 165 165 173 187 192 193
160 142 141 145 10 206 203 172 158 184 191 180 192 197 190 201 202 191 152 160 182 189 197 216 213 193 191 193 196 206 201 196 209 197 174 168 174 184 182 166 157 143 116 110 95 303 225 161 102 87 180 89 41 39 45 63 68 280 260 242 227 205 200 212 226 226 229 246 252 243 248 256 228 185 168 145 147 153 168 187 181 168 169 171 181 193 194 193
113 17 57 171 178 165 175 174 174 190 188 182 198 193 195 211 204 186 180 201 199 186 193 206 197 169 176 197 203 211 194 152 172 171 161 166 172 167 167 149 138 140 131 107 105 5 42 136 110 114 193 217 18 50 74 61 37 282 261 245 226 202 198 212 224 217 214 235 252 259 260 256 203 145 143 156 169 183 202 204 188 178 176 178 189 193 191 194
105 37 18 200 189 170 166 172 182 197 196 194 198 188 193 209 192 170 182 221 218 210 199 185 166 148 177 203 203 194 134 100 92 112 121 111 85 82 84 99 122 138 142 134 113 89 140 149 144 173 187 188 27 64 110 76 42 272 258 227 200 200 207 211 224 223 211 216 231 239 247 250 189 159 169 184 194 209 222 216 195 189 183 186 199 195 191 205